| time (UTC) | temp C | wind direction | speed KPH | gust KPH | rain 1hr cm | rain 24hr cm | rain mn cm | humidity % | barometer mb |
| 20260903213014 | 23 | 198 | 3.2 | 9.7 | 0.00 | 0.03 | 0.03 | 80 | 1010.7 |
| 20260903211526 | 23 | 206 | 1.6 | 11.3 | 0.00 | 0.03 | 0.03 | 78 | 1010.6 |
| 20260903210017 | 23 | 212 | 3.2 | 9.7 | 0.00 | 0.03 | 0.03 | 78 | 1010.4 |
| 20260903204513 | 23 | 244 | 0.0 | 9.7 | 0.00 | 0.03 | 0.03 | 79 | 1010.3 |
| 20260903203012 | 24 | 259 | 0.0 | 12.9 | 0.00 | 0.03 | 0.03 | 79 | 1010.4 |
| 20260903201517 | 23 | 229 | 4.8 | 12.9 | 0.00 | 0.03 | 0.03 | 80 | 1010.4 |
| 20260903200009 | 23 | 218 | 0.0 | 11.3 | 0.00 | 0.03 | 0.03 | 82 | 1010.7 |
| 20260903194507 | 23 | 189 | 0.0 | 12.9 | 0.00 | 0.03 | 0.03 | 81 | 1010.7 |
| 20260903193006 | 23 | 260 | 0.0 | 12.9 | 0.00 | 0.03 | 0.03 | 80 | 1010.9 |
| 20260903191503 | 23 | 192 | 3.2 | 20.9 | 0.00 | 0.03 | 0.03 | 83 | 1011.0 |
| 20260903190059 | 22 | 188 | 3.2 | 16.1 | 0.00 | 0.03 | 0.03 | 86 | 1011.0 |
| 20260903184555 | 21 | 198 | 3.2 | 20.9 | 0.00 | 0.03 | 0.03 | 87 | 1011.2 |
| 20260903183051 | 19 | 144 | 0.0 | 0.0 | 0.00 | 0.03 | 0.03 | 86 | 1011.2 |
| 20260903181548 | 18 | 145 | 0.0 | 0.0 | 0.00 | 0.03 | 0.03 | 86 | 1011.5 |
| 20260903180047 | 18 | 145 | 0.0 | 0.0 | 0.00 | 0.03 | 0.03 | 86 | 1011.7 |
| 20260903174544 | 18 | 146 | 0.0 | 0.0 | 0.00 | 0.03 | 0.03 | 86 | 1011.7 |
| 20260903173044 | 18 | 148 | 0.0 | 0.0 | 0.00 | 0.03 | 0.03 | 86 | 1011.7 |
| 20260903171540 | 17 | 147 | 0.0 | 0.0 | 0.00 | 0.03 | 0.03 | 86 | 1012.0 |
| 20260903170051 | 17 | 147 | 0.0 | 0.0 | 0.00 | 0.03 | 0.03 | 86 | 1012.0 |
| 20260903164535 | 17 | 148 | 0.0 | 0.0 | 0.00 | 0.03 | 0.03 | 86 | 1012.1 |
| 20260903163034 | 17 | 148 | 0.0 | 0.0 | 0.00 | 0.03 | 0.03 | 86 | 1012.3 |
| 20260903161535 | 17 | 148 | 0.0 | 0.0 | 0.00 | 0.03 | 0.03 | 86 | 1012.3 |
| 20260903160032 | 17 | 148 | 0.0 | 0.0 | 0.00 | 0.03 | 0.03 | 87 | 1012.4 |
| 20260903154535 | 17 | 148 | 0.0 | 0.0 | 0.00 | 0.03 | 0.03 | 87 | 1012.4 |
| 20260903153026 | 16 | 148 | 0.0 | 0.0 | 0.00 | 0.03 | 0.03 | 87 | 1012.5 |
| 20260903151524 | 16 | 148 | 0.0 | 0.0 | 0.00 | 0.03 | 0.03 | 87 | 1012.6 |
| 20260903150023 | 15 | 148 | 0.0 | 0.0 | 0.00 | 0.03 | 0.03 | 87 | 1012.8 |
| 20260903144523 | 15 | 148 | 0.0 | 0.0 | 0.00 | 0.03 | 0.03 | 87 | 1012.8 |
| 20260903143020 | 15 | 148 | 0.0 | 0.0 | 0.00 | 0.03 | 0.03 | 87 | 1012.7 |
| 20260903141531 | 15 | 148 | 0.0 | 0.0 | 0.00 | 0.03 | 0.03 | 87 | 1012.8 |
| 20260903140017 | 15 | 148 | 0.0 | 0.0 | 0.00 | 0.03 | 0.03 | 87 | 1012.9 |
| 20260903134516 | 14 | 148 | 0.0 | 0.0 | 0.00 | 0.03 | 0.03 | 87 | 1013.0 |
| 20260903133016 | 14 | 148 | 0.0 | 0.0 | 0.00 | 0.03 | 0.03 | 87 | 1012.9 |
| 20260903131515 | 14 | 148 | 0.0 | 0.0 | 0.00 | 0.03 | 0.03 | 87 | 1013.0 |
| 20260903130015 | 14 | 148 | 0.0 | 0.0 | 0.03 | 0.03 | 0.03 | 87 | 1013.0 |
| 20260903124517 | 14 | 148 | 0.0 | 0.0 | 0.03 | 0.03 | 0.03 | 88 | 1013.0 |
| 20260903123013 | 14 | 148 | 0.0 | 0.0 | 0.03 | 0.03 | 0.03 | 88 | 1013.2 |
| 20260903121512 | 14 | 148 | 0.0 | 0.0 | 0.03 | 0.03 | 0.03 | 88 | 1013.1 |
| 20260903120013 | 14 | 148 | 0.0 | 0.0 | 0.00 | 0.00 | 0.00 | 88 | 1013.2 |
| 20260903114511 | 14 | 148 | 0.0 | 0.0 | 0.00 | 0.00 | 0.00 | 88 | 1013.3 |
| 20260903113010 | 14 | 148 | 0.0 | 0.0 | 0.00 | 0.00 | 0.00 | 88 | 1013.3 |
| 20260903111513 | 14 | 148 | 0.0 | 0.0 | 0.00 | 0.00 | 0.00 | 88 | 1013.4 |
| 20260903110009 | 14 | 148 | 0.0 | 0.0 | 0.00 | 0.00 | 0.00 | 88 | 1013.4 |
| 20260903104509 | 14 | 148 | 0.0 | 0.0 | 0.00 | 0.00 | 0.00 | 88 | 1013.3 |
| 20260903103004 | 14 | 148 | 0.0 | 0.0 | 0.00 | 0.00 | 0.00 | 88 | 1013.3 |
| 20260903101502 | 14 | 148 | 0.0 | 0.0 | 0.00 | 0.00 | 0.00 | 88 | 1013.1 |
| 20260903100002 | 15 | 148 | 0.0 | 0.0 | 0.00 | 0.00 | 0.00 | 88 | 1013.2 |
| 20260903094606 | 15 | 148 | 0.0 | 0.0 | 0.00 | 0.00 | 0.00 | 88 | 1013.2 |
| 20260903093106 | 15 | 148 | 0.0 | 0.0 | 0.00 | 0.00 | 0.00 | 88 | 1013.2 |
| 20260903091557 | 15 | 148 | 0.0 | 0.0 | 0.00 | 0.00 | 0.00 | 88 | 1013.3 |
| 20260903090057 | 15 | 148 | 0.0 | 0.0 | 0.00 | 0.00 | 0.00 | 88 | 1013.4 |
| 20260903084558 | 15 | 148 | 0.0 | 0.0 | 0.00 | 0.00 | 0.00 | 88 | 1013.3 |
| 20260903083058 | 15 | 148 | 0.0 | 0.0 | 0.00 | 0.00 | 0.00 | 88 | 1013.5 |
| 20260903081612 | 15 | 148 | 0.0 | 0.0 | 0.00 | 0.00 | 0.00 | 88 | 1014.0 |
| 20260903080051 | 15 | 148 | 0.0 | 0.0 | 0.00 | 0.00 | 0.00 | 88 | 1013.9 |
| 20260903074554 | 15 | 148 | 0.0 | 0.0 | 0.00 | 0.00 | 0.00 | 88 | 1013.7 |
| 20260903073049 | 15 | 154 | 0.0 | 0.0 | 0.00 | 0.00 | 0.00 | 88 | 1013.9 |
| 20260903071553 | 15 | 153 | 0.0 | 0.0 | 0.00 | 0.00 | 0.00 | 88 | 1014.0 |
| 20260903070046 | 15 | 186 | 0.0 | 0.0 | 0.00 | 0.00 | 0.00 | 88 | 1014.1 |
| 20260903064549 | 15 | 150 | 0.0 | 8.0 | 0.00 | 0.00 | 0.00 | 88 | 1014.2 |
| 20260903063048 | 15 | 159 | 0.0 | 6.4 | 0.00 | 0.00 | 0.00 | 88 | 1014.1 |
| 20260903061540 | 16 | 202 | 0.0 | 0.0 | 0.00 | 0.00 | 0.00 | 88 | 1014.5 |
| 20260903060042 | 16 | 187 | 0.0 | 11.3 | 0.00 | 0.00 | 0.00 | 88 | 1014.7 |
| 20260903054535 | 16 | 146 | 0.0 | 0.0 | 0.00 | 0.00 | 0.00 | 88 | 1015.0 |
| 20260903053037 | 16 | 181 | 0.0 | 0.0 | 0.00 | 0.00 | 0.00 | 87 | 1015.4 |
| 20260903051532 | 16 | 170 | 3.2 | 12.9 | 0.00 | 0.00 | 0.00 | 87 | 1015.4 |
| 20260903050041 | 16 | 188 | 1.6 | 14.5 | 0.00 | 0.00 | 0.00 | 86 | 1015.5 |
| 20260903044530 | 16 | 163 | 1.6 | 8.0 | 0.00 | 0.00 | 0.00 | 85 | 1015.5 |
| 20260903043027 | 16 | 92 | 0.0 | 1.6 | 0.00 | 0.00 | 0.00 | 84 | 1015.5 |
| 20260903041526 | 16 | 217 | 3.2 | 19.3 | 0.00 | 0.00 | 0.00 | 84 | 1015.3 |
| 20260903040024 | 17 | 145 | 4.8 | 19.3 | 0.00 | 0.00 | 0.00 | 83 | 1015.4 |
| 20260903034524 | 17 | 153 | 3.2 | 9.7 | 0.00 | 0.03 | 0.00 | 82 | 1016.0 |
| 20260903033018 | 17 | 122 | 0.0 | 19.3 | 0.00 | 0.03 | 0.00 | 81 | 1016.1 |
| 20260903031516 | 17 | 226 | 0.0 | 11.3 | 0.00 | 0.03 | 0.00 | 82 | 1016.3 |
| 20260903030016 | 17 | 178 | 1.6 | 11.3 | 0.00 | 0.03 | 0.00 | 83 | 1016.6 |
| 20260903024515 | 17 | 207 | 0.0 | 11.3 | 0.00 | 0.03 | 0.00 | 83 | 1016.5 |
| 20260903023024 | 17 | 171 | 0.0 | 11.3 | 0.00 | 0.03 | 0.00 | 84 | 1016.8 |
| 20260903021518 | 17 | 138 | 3.2 | 20.9 | 0.00 | 0.03 | 0.00 | 84 | 1016.7 |
| 20260903020040 | 17 | 180 | 1.6 | 16.1 | 0.00 | 0.03 | 0.00 | 85 | 1017.0 |
| 20260903014514 | 17 | 136 | 1.6 | 9.7 | 0.00 | 0.03 | 0.00 | 86 | 1017.2 |
| 20260903013013 | 17 | 188 | 6.4 | 19.3 | 0.00 | 0.03 | 0.00 | 87 | 1017.2 |
| 20260903011512 | 17 | 172 | 3.2 | 25.7 | 0.00 | 0.03 | 0.00 | 87 | 1017.3 |
| 20260903010012 | 17 | 177 | 1.6 | 11.3 | 0.00 | 0.03 | 0.00 | 87 | 1017.6 |
| 20260903004511 | 17 | 184 | 3.2 | 11.3 | 0.00 | 0.03 | 0.00 | 87 | 1017.5 |
| 20260903003011 | 17 | 170 | 0.0 | 11.3 | 0.00 | 0.03 | 0.00 | 86 | 1017.0 |
| 20260903001510 | 17 | 130 | 3.2 | 8.0 | 0.00 | 0.03 | 0.00 | 86 | 1017.1 |
| 20260903000010 | 17 | 158 | 0.0 | 14.5 | 0.00 | 0.03 | 0.00 | 87 | 1016.4 |
| 20260902234508 | 17 | 167 | 3.2 | 19.3 | 0.00 | 0.03 | 0.00 | 87 | 1016.7 |
| 20260902233009 | 17 | 147 | 0.0 | 11.3 | 0.00 | 0.03 | 0.00 | 87 | 1016.9 |
| 20260902231509 | 17 | 184 | 0.0 | 16.1 | 0.00 | 0.03 | 0.00 | 87 | 1017.4 |
| 20260902230001 | 17 | 170 | 3.2 | 12.9 | 0.00 | 0.03 | 0.00 | 87 | 1017.9 |
| 20260902224601 | 17 | 169 | 0.0 | 6.4 | 0.00 | 0.03 | 0.00 | 87 | 1018.3 |
| 20260902223059 | 17 | 169 | 0.0 | 6.4 | 0.00 | 0.03 | 0.00 | 87 | 1018.7 |
| 20260902221701 | 17 | 182 | 0.0 | 0.0 | 0.00 | 0.03 | 0.00 | 87 | 1018.7 |
| 20260902214558 | 17 | 171 | 0.0 | 0.0 | 0.00 | 0.03 | 0.00 | 87 | 1019.1 |